Estación Meteorológica Peña el Pijo (Robertgarden) [ 09/30/20 20:13:21 CEST ]

Fecha Hora Presion(HPa) Temp (°C) Humedad % Rocio (°C) Viento ( m/s) Direccion Lluvia 1Hora(mm) Lluvia 24H(mm) LLuvia Total(mm)
2020-Jan-28 01:09:10 1012.200 - - - - N     39.88
2020-Jan-28 02:11:59 1012.300 - - - - N     39.88
2020-Jan-28 03:09:15 1011.800 - - - - N     39.88
2020-Jan-28 04:09:53 1011.900 - - - - N     39.88
2020-Jan-28 05:09:37 1011.500 - - - - N     39.88
2020-Jan-28 06:09:08 1011.500 - - - - N     39.88
2020-Jan-28 07:09:06 1012.000 - - - - N     39.88
2020-Jan-28 08:08:57 1012.400 - - - - N     39.88
2020-Jan-28 09:08:54 1012.200 - - - - N     39.88
2020-Jan-28 10:08:51 1012.700 - - - - N     39.88
2020-Jan-28 11:09:29 1012.900 - - - - N     39.88
2020-Jan-28 12:09:30 1012.800 - - - - N     39.88
2020-Jan-28 13:09:29 1012.100 - - - - N     39.88
2020-Jan-28 14:09:02 1012.000 - - - - N     39.88
2020-Jan-28 15:09:06 1011.700 - - - - N     39.88
2020-Jan-28 16:09:32 1011.600 - - - - N     39.88
2020-Jan-28 17:09:33 1011.500 - - - - N     39.88
2020-Jan-28 18:09:15 1012.000 - - - - N     39.88
2020-Jan-28 19:09:12 1012.500 - - - - N     39.88
2020-Jan-28 20:08:56 1012.600 - - - - N     39.88
2020-Jan-28 21:08:50 1012.700 - - - - N     39.88
2020-Jan-28 22:09:22 1012.800 - - - - N     39.88
2020-Jan-28 23:09:25 1012.700 - - - - N     39.88

Temperatura Máxima:    Temperatura Mínima:
Presión Máxima:1012.900 Hpa    Presión Mínima:1011.500 Hpa


Volver